| time (UTC) | temp C | wind direction | speed KPH | gust KPH | rain 1hr cm | rain 24hr cm | rain mn cm | humidity % | barometer mb |
| 20260503022016 | 32 | 313 | 3.2 | 66.0 | 0.00 | 0.00 | 0.00 | 100 | 1012.1 |
| 20260503021017 | 31 | 318 | 4.8 | 67.6 | 0.00 | 0.00 | 0.00 | 100 | 1012.1 |
| 20260503020038 | 31 | 318 | 3.2 | 67.6 | 0.00 | 0.00 | 0.00 | 100 | 1012.0 |
| 20260503015019 | 31 | 313 | 4.8 | 67.6 | 0.00 | 0.00 | 0.00 | 100 | 1011.9 |
| 20260503014020 | 30 | 308 | 4.8 | 67.6 | 0.00 | 0.00 | 0.00 | 100 | 1011.8 |
| 20260503013035 | 30 | 327 | 4.8 | 70.8 | 0.00 | 0.00 | 0.00 | 100 | 1011.7 |
| 20260503012037 | 30 | 314 | 4.8 | 74.0 | 0.00 | 0.00 | 0.00 | 100 | 1011.7 |
| 20260503011017 | 29 | 320 | 3.2 | 64.4 | 0.00 | 0.00 | 0.00 | 100 | 1011.7 |
| 20260503010018 | 29 | 315 | 3.2 | 66.0 | 0.00 | 0.00 | 0.00 | 100 | 1011.6 |
| 20260503005019 | 28 | 317 | 3.2 | 66.0 | 0.00 | 0.00 | 0.00 | 100 | 1011.3 |
| 20260503004020 | 28 | 311 | 3.2 | 53.1 | 0.00 | 0.00 | 0.00 | 100 | 1011.1 |
| 20260503003101 | 28 | 301 | 4.8 | 70.8 | 0.00 | 0.00 | 0.00 | 100 | 1011.1 |
| 20260503002016 | 27 | 317 | 4.8 | 69.2 | 0.00 | 0.00 | 0.00 | 100 | 1011.0 |
| 20260503001017 | 27 | 325 | 4.8 | 70.8 | 0.00 | 0.00 | 0.00 | 100 | 1010.9 |
| 20260503000018 | 27 | 304 | 3.2 | 64.4 | 0.00 | 0.00 | 0.00 | 100 | 1010.8 |
| 20260502235019 | 27 | 319 | 3.2 | 59.5 | 0.00 | 0.00 | 0.00 | 100 | 1010.6 |
| 20260502234020 | 27 | 315 | 4.8 | 69.2 | 0.00 | 0.00 | 0.00 | 100 | 1010.5 |
| 20260502233020 | 27 | 305 | 4.8 | 67.6 | 0.00 | 0.00 | 0.00 | 100 | 1010.4 |
| 20260502232016 | 27 | 302 | 3.2 | 66.0 | 0.00 | 0.00 | 0.00 | 100 | 1010.3 |
| 20260502231017 | 27 | 322 | 3.2 | 67.6 | 0.00 | 0.00 | 0.00 | 100 | 1010.1 |
| 20260502230018 | 27 | 321 | 4.8 | 74.0 | 0.00 | 0.00 | 0.00 | 100 | 1009.9 |
| 20260502225018 | 27 | 306 | 4.8 | 75.6 | 0.00 | 0.00 | 0.00 | 100 | 1009.8 |
| 20260502224040 | 27 | 311 | 3.2 | 24.1 | 0.00 | 0.00 | 0.00 | 100 | 1009.8 |
| 20260502223021 | 27 | 322 | 4.8 | 70.8 | 0.00 | 0.00 | 0.00 | 100 | 1009.7 |
| 20260502222015 | 27 | 306 | 4.8 | 72.4 | 0.00 | 0.00 | 0.00 | 100 | 1009.7 |
| 20260502221037 | 27 | 311 | 4.8 | 70.8 | 0.00 | 0.00 | 0.00 | 100 | 1009.7 |
| 20260502220018 | 27 | 320 | 4.8 | 69.2 | 0.00 | 0.00 | 0.00 | 100 | 1009.6 |
| 20260502215039 | 27 | 310 | 4.8 | 72.4 | 0.00 | 0.00 | 0.00 | 100 | 1009.5 |
| 20260502214019 | 27 | 306 | 3.2 | 20.9 | 0.00 | 0.00 | 0.00 | 100 | 1009.3 |
| 20260502213021 | 27 | 312 | 4.8 | 70.8 | 0.00 | 0.00 | 0.00 | 100 | 1009.2 |
| 20260502212020 | 27 | 306 | 4.8 | 72.4 | 0.00 | 0.00 | 0.00 | 100 | 1009.2 |
| 20260502211017 | 28 | 317 | 3.2 | 66.0 | 0.00 | 0.00 | 0.00 | 100 | 1009.1 |
| 20260502210158 | 28 | 304 | 4.8 | 67.6 | 0.00 | 0.00 | 0.00 | 100 | 1009.1 |
| 20260502205018 | 28 | 322 | 4.8 | 67.6 | 0.00 | 0.00 | 0.00 | 100 | 1009.0 |
| 20260502204018 | 28 | 313 | 4.8 | 70.8 | 0.00 | 0.00 | 0.00 | 100 | 1009.0 |
| 20260502203020 | 28 | 320 | 3.2 | 66.0 | 0.00 | 0.00 | 0.00 | 100 | 1009.0 |
| 20260502202021 | 28 | 304 | 4.8 | 70.8 | 0.00 | 0.00 | 0.00 | 100 | 1009.0 |
| 20260502201016 | 28 | 314 | 3.2 | 66.0 | 0.00 | 0.00 | 0.00 | 100 | 1009.1 |
| 20260502200017 | 28 | 308 | 4.8 | 72.4 | 0.00 | 0.00 | 0.00 | 100 | 1009.1 |
| 20260502195018 | 28 | 309 | 4.8 | 70.8 | 0.00 | 0.00 | 0.00 | 100 | 1009.1 |
| 20260502194018 | 28 | 312 | 4.8 | 69.2 | 0.00 | 0.00 | 0.00 | 100 | 1009.2 |
| 20260502193020 | 28 | 309 | 3.2 | 66.0 | 0.00 | 0.00 | 0.00 | 100 | 1009.3 |
| 20260502192020 | 28 | 308 | 4.8 | 67.6 | 0.00 | 0.00 | 0.00 | 100 | 1009.3 |
| 20260502191016 | 28 | 309 | 4.8 | 69.2 | 0.00 | 0.00 | 0.00 | 100 | 1009.4 |
| 20260502190017 | 28 | 320 | 3.2 | 62.8 | 0.00 | 0.00 | 0.00 | 100 | 1009.5 |
| 20260502185018 | 28 | 314 | 4.8 | 70.8 | 0.00 | 0.00 | 0.00 | 100 | 1009.5 |
| 20260502184018 | 28 | 317 | 3.2 | 54.7 | 0.00 | 0.00 | 0.00 | 100 | 1009.6 |
| 20260502183119 | 28 | 305 | 3.2 | 61.2 | 0.00 | 0.00 | 0.00 | 100 | 1009.8 |
| 20260502182020 | 28 | 317 | 3.2 | 66.0 | 0.00 | 0.00 | 0.00 | 100 | 1010.0 |
| 20260502181017 | 28 | 319 | 4.8 | 70.8 | 0.00 | 0.00 | 0.00 | 100 | 1010.2 |
| 20260502164018 | 29 | 319 | 4.8 | 69.2 | 0.00 | 0.00 | 0.00 | 100 | 1011.1 |
| 20260502163019 | 29 | 311 | 4.8 | 69.2 | 0.00 | 0.00 | 0.00 | 100 | 1011.2 |
| 20260502162100 | 29 | 307 | 4.8 | 72.4 | 0.00 | 0.00 | 0.00 | 100 | 1011.1 |
| 20260502161036 | 29 | 312 | 3.2 | 48.3 | 0.00 | 0.00 | 0.00 | 100 | 1011.2 |
| 20260502152020 | 30 | 313 | 4.8 | 67.6 | 0.00 | 0.00 | 0.00 | 100 | 1011.1 |
| 20260502151016 | 30 | 310 | 4.8 | 69.2 | 0.00 | 0.00 | 0.00 | 100 | 1010.9 |
| 20260502123020 | 31 | 307 | 3.2 | 53.1 | 0.00 | 0.00 | 0.00 | 100 | 1008.4 |
| 20260502122021 | 31 | 313 | 4.8 | 69.2 | 0.00 | 0.00 | 0.00 | 100 | 1008.2 |
| 20260502121016 | 31 | 308 | 4.8 | 69.2 | 0.00 | 0.00 | 0.00 | 100 | 1008.0 |
| 20260502115037 | 32 | 299 | 4.8 | 77.2 | 0.00 | 0.00 | 0.00 | 100 | 1007.8 |
| 20260502114018 | 32 | 298 | 4.8 | 67.6 | 0.00 | 0.00 | 0.00 | 100 | 1007.7 |
| 20260502113020 | 32 | 304 | 4.8 | 67.6 | 0.00 | 0.00 | 0.00 | 100 | 1007.6 |
| 20260502112020 | 33 | 312 | 4.8 | 69.2 | 0.00 | 0.00 | 0.00 | 100 | 1007.6 |
| 20260502111016 | 33 | 313 | 4.8 | 70.8 | 0.00 | 0.00 | 0.00 | 100 | 1007.5 |
| 20260502110018 | 33 | 320 | 3.2 | 22.5 | 0.00 | 0.00 | 0.00 | 100 | 1007.2 |
| 20260502105018 | 33 | 325 | 4.8 | 70.8 | 0.00 | 0.00 | 0.00 | 100 | 1007.0 |
| 20260502104018 | 33 | 327 | 3.2 | 64.4 | 0.00 | 0.00 | 0.00 | 100 | 1007.1 |
| 20260502103019 | 33 | 317 | 4.8 | 67.6 | 0.00 | 0.00 | 0.00 | 100 | 1007.1 |
| 20260502102019 | 33 | 319 | 4.8 | 70.8 | 0.00 | 0.00 | 0.00 | 100 | 1007.1 |
| 20260502101043 | 33 | 311 | 4.8 | 75.6 | 0.00 | 0.00 | 0.00 | 100 | 1007.0 |
| 20260502091021 | 33 | 320 | 4.8 | 74.0 | 0.00 | 0.00 | 0.00 | 100 | 1007.1 |
| 20260502071020 | 37 | 318 | 4.8 | 72.4 | 0.00 | 0.00 | 0.00 | 77 | 1008.7 |
| 20260502070016 | 37 | 325 | 4.8 | 72.4 | 0.00 | 0.00 | 0.00 | 73 | 1008.7 |
| 20260502065017 | 37 | 309 | 3.2 | 30.6 | 0.00 | 0.00 | 0.00 | 67 | 1008.9 |
| 20260502064038 | 36 | 315 | 3.2 | 64.4 | 0.00 | 0.00 | 0.00 | 67 | 1009.0 |
| 20260502063019 | 36 | 330 | 3.2 | 66.0 | 0.00 | 0.00 | 0.00 | 66 | 1009.1 |
| 20260502062019 | 36 | 323 | 3.2 | 51.5 | 0.00 | 0.00 | 0.00 | 68 | 1009.3 |
| 20260502061020 | 36 | 318 | 3.2 | 66.0 | 0.00 | 0.00 | 0.00 | 72 | 1009.5 |
| 20260502060016 | 36 | 308 | 4.8 | 74.0 | 0.00 | 0.00 | 0.00 | 74 | 1009.6 |
| 20260502055037 | 36 | 326 | 4.8 | 70.8 | 0.00 | 0.00 | 0.00 | 74 | 1009.8 |
| 20260502054017 | 35 | 322 | 3.2 | 66.0 | 0.00 | 0.00 | 0.00 | 77 | 1009.8 |
| 20260502053019 | 35 | 319 | 4.8 | 70.8 | 0.00 | 0.00 | 0.00 | 67 | 1009.9 |
| 20260502052039 | 36 | 311 | 4.8 | 70.8 | 0.00 | 0.00 | 0.00 | 64 | 1010.0 |
| 20260502051020 | 36 | 307 | 4.8 | 74.0 | 0.00 | 0.00 | 0.00 | 63 | 1010.0 |
| 20260502050015 | 35 | 316 | 4.8 | 69.2 | 0.00 | 0.00 | 0.00 | 68 | 1010.1 |
| 20260502045017 | 35 | 330 | 4.8 | 70.8 | 0.00 | 0.00 | 0.00 | 75 | 1010.2 |
| 20260502044018 | 34 | 306 | 4.8 | 69.2 | 0.00 | 0.00 | 0.00 | 76 | 1010.4 |
| 20260502043019 | 35 | 323 | 3.2 | 66.0 | 0.00 | 0.00 | 0.00 | 79 | 1010.6 |
| 20260502042020 | 35 | 321 | 3.2 | 66.0 | 0.00 | 0.00 | 0.00 | 82 | 1010.8 |
| 20260502041020 | 34 | 321 | 4.8 | 74.0 | 0.00 | 0.00 | 0.00 | 84 | 1011.0 |
| 20260502040016 | 34 | 321 | 3.2 | 66.0 | 0.00 | 0.00 | 0.00 | 84 | 1011.2 |
| 20260502035016 | 34 | 317 | 3.2 | 61.2 | 0.00 | 0.00 | 0.00 | 88 | 1011.3 |
| 20260502034017 | 34 | 324 | 4.8 | 69.2 | 0.00 | 0.00 | 0.00 | 97 | 1011.4 |
| 20260502033018 | 33 | 313 | 4.8 | 74.0 | 0.00 | 0.00 | 0.00 | 100 | 1011.5 |
| 20260502032019 | 33 | 322 | 3.2 | 51.5 | 0.00 | 0.00 | 0.00 | 100 | 1011.6 |
| 20260502031039 | 33 | 335 | 4.8 | 69.2 | 0.00 | 0.00 | 0.00 | 100 | 1011.7 |
| 20260502030020 | 32 | 323 | 3.2 | 66.0 | 0.00 | 0.00 | 0.00 | 100 | 1011.7 |
| 20260502025016 | 32 | 338 | 4.8 | 70.8 | 0.00 | 0.00 | 0.00 | 100 | 1011.7 |
| 20260502024017 | 32 | 341 | 4.8 | 67.6 | 0.00 | 0.00 | 0.00 | 100 | 1011.7 |
| 20260502023019 | 32 | 320 | 3.2 | 64.4 | 0.00 | 0.00 | 0.00 | 100 | 1011.7 |